�������r�C�����j�^�v���󋵏��
Date,Time,5�C6���@���p�r�C��,����,����(m/s)
2022/03/03,00:00,3.9,���k��,0.8
2022/03/03,00:10,4.1,�k�k��,1.4
2022/03/03,00:20,3.9,�k,1.7
2022/03/03,00:30,4.2,�k,2.6
2022/03/03,00:40,4.0,�k,2.3
2022/03/03,00:50,4.0,�k�k��,2.8
2022/03/03,01:00,4.1,�k�k��,1.4
2022/03/03,01:10,4.0,�k��,0.9
2022/03/03,01:20,4.1,�k��,1.2
2022/03/03,01:30,4.1,���k��,1.1
2022/03/03,01:40,4.1,���쐼,0.8
2022/03/03,01:50,4.1,��,0.6
2022/03/03,02:00,4.0,-,CALM
2022/03/03,02:10,3.8,���쓌,0.9
2022/03/03,02:20,4.1,��쓌,1.5
2022/03/03,02:30,4.1,��쓌,2.8
2022/03/03,02:40,4.1,��쓌,3.0
2022/03/03,02:50,4.1,��쓌,3.9
2022/03/03,03:00,4.2,��쓌,3.9
2022/03/03,03:10,4.0,��쓌,4.2
2022/03/03,03:20,3.9,��쓌,4.9
2022/03/03,03:30,4.0,��쓌,5.1
2022/03/03,03:40,4.0,��,5.1
2022/03/03,03:50,4.0,��쓌,6.1
2022/03/03,04:00,4.1,��쓌,5.1
2022/03/03,04:10,4.0,��,4.8
2022/03/03,04:20,3.9,��,4.6
2022/03/03,04:30,4.3,��,4.5
2022/03/03,04:40,4.1,��쓌,3.9
2022/03/03,04:50,4.0,��쓌,3.9
2022/03/03,05:00,4.1,��쓌,3.9
2022/03/03,05:10,4.1,��,3.3
2022/03/03,05:20,4.1,��쓌,2.8
2022/03/03,05:30,4.1,��,3.2
2022/03/03,05:40,3.9,��,4.1
2022/03/03,05:50,4.2,��,4.5
2022/03/03,06:00,4.2,��,5.3
2022/03/03,06:10,4.1,��,5.3
2022/03/03,06:20,3.9,��,6.1
2022/03/03,06:30,4.0,��,6.7
2022/03/03,06:40,4.1,��,6.0
2022/03/03,06:50,4.2,��쓌,5.6
2022/03/03,07:00,3.9,��쓌,6.0
2022/03/03,07:10,4.2,��쓌,6.1
2022/03/03,07:20,4.0,��,6.6
2022/03/03,07:30,4.1,��쓌,8.9
2022/03/03,07:40,4.0,��,9.6
2022/03/03,07:50,4.1,��,7.9
2022/03/03,08:00,4.0,��,5.5
2022/03/03,08:10,4.0,��,4.3
2022/03/03,08:20,4.1,��,4.0
2022/03/03,08:30,4.1,��쐼,3.2
2022/03/03,08:40,4.1,��쓌,1.9
2022/03/03,08:50,4.2,��쓌,4.1
2022/03/03,09:00,4.0,��,6.3
2022/03/03,09:10,4.0,��쓌,5.8
2022/03/03,09:20,4.1,��쐼,6.3
2022/03/03,09:30,4.3,���쐼,8.1
2022/03/03,09:40,4.2,�쐼,8.0
2022/03/03,09:50,4.2,���쐼,7.5
2022/03/03,10:00,3.9,�쐼,8.9
2022/03/03,10:10,4.2,�쐼,9.2
2022/03/03,10:20,4.1,�쐼,7.7
2022/03/03,10:30,4.0,�쐼,10.5
2022/03/03,10:40,3.9,�쐼,7.3
2022/03/03,10:50,3.9,���쐼,8.2
2022/03/03,11:00,4.0,�쐼,6.7
2022/03/03,11:10,4.0,���쐼,10.2
2022/03/03,11:20,4.0,���쐼,11.3
2022/03/03,11:30,4.1,���쐼,6.9
2022/03/03,11:40,4.1,�쐼,6.4
2022/03/03,11:50,4.0,���쐼,9.3
2022/03/03,12:00,3.9,���쐼,10.6
2022/03/03,12:10,4.1,��,9.4
2022/03/03,12:20,3.9,���쐼,8.1
2022/03/03,12:30,4.1,��,7.1
2022/03/03,12:40,4.0,���쐼,9.9
2022/03/03,12:50,4.1,���쐼,10.5
2022/03/03,13:00,4.1,��,10.6
2022/03/03,13:10,3.9,��,9.1
2022/03/03,13:20,4.1,��,10.2
2022/03/03,13:30,3.9,��,8.4
2022/03/03,13:40,4.0,���k��,10.4
2022/03/03,13:50,4.1,��,8.4
2022/03/03,14:00,4.0,��,8.1
2022/03/03,14:10,4.2,���k��,7.5
2022/03/03,14:20,4.1,�k��,2.9
2022/03/03,14:30,4.1,���k��,4.4
2022/03/03,14:40,4.1,�k,4.9
2022/03/03,14:50,4.1,�k,4.1
2022/03/03,15:00,4.0,�k,4.0
2022/03/03,15:10,4.0,�k,3.6
2022/03/03,15:20,4.2,��,3.8
2022/03/03,15:30,4.0,��,6.7
2022/03/03,15:40,3.9,��,10.2
2022/03/03,15:50,4.0,��,10.8
2022/03/03,16:00,4.1,��,7.2
2022/03/03,16:10,3.8,��,7.5
2022/03/03,16:20,4.2,��,5.9
2022/03/03,16:30,4.2,��,6.7
2022/03/03,16:40,4.1,��,7.7
2022/03/03,16:50,4.0,��,8.8
2022/03/03,17:00,3.9,���k��,8.4
2022/03/03,17:10,4.0,���k��,5.7
2022/03/03,17:20,4.2,���k��,5.4
2022/03/03,17:30,4.1,��,3.7
2022/03/03,17:40,4.0,���k��,6.4
2022/03/03,17:50,4.0,���k��,4.0
2022/03/03,18:00,4.1,��,5.5
2022/03/03,18:10,4.1,��,5.6
2022/03/03,18:20,3.8,���k��,2.9
2022/03/03,18:30,4.0,�k��,4.6
2022/03/03,18:40,4.1,�k��,5.7
2022/03/03,18:50,4.0,���k��,4.3
2022/03/03,19:00,4.0,��,2.6
2022/03/03,19:10,4.1,���k��,1.1
2022/03/03,19:20,4.1,�k�k��,2.0
2022/03/03,19:30,4.0,�k��,1.4
2022/03/03,19:40,3.9,�k,2.0
2022/03/03,19:50,4.0,�k,1.5
2022/03/03,20:00,4.2,�k,1.1
2022/03/03,20:10,4.0,�k,0.9
2022/03/03,20:20,4.1,�k,1.2
2022/03/03,20:30,4.0,�k��,1.7
2022/03/03,20:40,4.0,�k��,4.2
2022/03/03,20:50,4.1,�k��,4.0
2022/03/03,21:00,4.0,�k��,3.3
2022/03/03,21:10,4.1,�k��,3.0
2022/03/03,21:20,4.1,���k��,3.0
2022/03/03,21:30,4.1,�k��,2.6
2022/03/03,21:40,4.0,���k��,2.8
2022/03/03,21:50,4.0,���k��,2.3
2022/03/03,22:00,4.1,���k��,1.5
2022/03/03,22:10,4.0,��,2.3
2022/03/03,22:20,4.0,��,3.1
2022/03/03,22:30,4.0,��,3.4
2022/03/03,22:40,4.1,���k��,2.8
2022/03/03,22:50,4.0,��,3.1
2022/03/03,23:00,4.0,���k��,2.0
2022/03/03,23:10,4.2,���k��,1.7
2022/03/03,23:20,4.1,��,2.8
2022/03/03,23:30,4.0,��,2.9
2022/03/03,23:40,4.1,��,3.4
2022/03/03,23:50,4.1,��,3.6
